Location: *
(45.0500°N, 12.0500°E)
Time: 22:11:17
(UTC+00:00)

SL-8 Rocket - Pass Details

Date: 09 April 2020
Orbit: 957 x 990 km, 82.9° (Epoch: 29 May)

Event Time Altitude Azimuth Distance (km) Brightness Sun altitude
Rises 19:22:17 0° 354° (N) 3,709 7.6 -16.0°
Reaches altitude 10° 19:24:52 10° 358° (N) 2,759 6.8 -16.4°
Maximum altitude 19:31:09 62° 79° (E) 1,108 4.1 -17.3°
Enters shadow 19:35:11 23° 153° (SSE) 1,973 5.1 -17.9°
